www.pogodaiklimat.ru

Погода и климат >> Архив погоды >> Россия >> Якутия >> Усть-Чаркы


ПОГОДА в Усть-Чарках

  • Прогноз погоды в Усть-Чарках
  • Монитор погоды в Усть-Чарках
  • Климат города

АРХИВ ПОГОДЫ в Усть-Чарках

Время (UTC), дата Ветер
(напр.,м/с)
 
Видим.   Явления Облачность Т
(С)
Тd
(С)
f
(%)
Тe
(С)
Тes
(С)
Комфортность P
(гПа)
Po
(гПа)
Тmin
(С)
Tmax
(С)
R
(мм)
R24
(мм)
S
(см)
18 16.10 штиль 0 50 км {снег} 8/0
[]
-15.2 -16.5 90 -15 -15 1028.0 991.5
21 16.10 штиль 0 50 км 10/0
[As op]
-13.9 -15.2 90 -14 -14 1028.0 991.7 -15.2 1 14
00 17.10 штиль 0 50 км 10/0
[As op]
-11.8 -13.1 90 -12 -12 1028.3 992.2
03 17.10 штиль 0 10 км слабый ливневой снег 10/3 600 м
[Cb cap As op]
-10.4 -12.4 85 -11 -11 1028.1 992.3
06 17.10 штиль 0 10 км слабый ливневой снег 10/3 600 м
[Cb cap As op]
-9.8 -12.4 81 -10 -10 1028.4 992.5
09 17.10 штиль 0 50 км {ливн. осадки} 10/10 1000 м
[Sc]
-10.8 -12.8 85 -11 -11 1029.1 993.1 -9.6 0.2
12 17.10 штиль 0 50 км {ливн. осадки} 10/10 1000 м
[Sc]
-12.4 -14.4 85 -12 -12 1029.4 993.2
15 17.10 ЮВ 1 50 км 10/10 1000 м
[Sc]
-12.9 -14.9 85 -15 -15 1030.0 993.7
18 17.10 ЮВ 1 50 км 10/10 1000 м
[Sc]
-13.4 -14.7 90 -16 -16 1030.5 994.2
21 17.10 штиль 0 50 км 10/10 1000 м
[Sc]
-15.5 -17.4 85 -16 -16 1031.5 994.9 -15.5 15
00 18.10 штиль 0 50 км 10/10 1000 м
[Sc]
-15.2 -15.8 95 -15 -15 1031.6 995.0
03 18.10 В 1 50 км 10/10 1000 м
[Sc]
-14.3 -15.6 90 -17 -17 1030.6 994.1
06 18.10 штиль 0 50 км 8/4 300 м
[St Ac trans]
-13.2 -15.9 80 -13 -13 1030.2 993.9
09 18.10 штиль 0 50 км 1/1 300 м
[St]
-21.8 -23.6 85 -22 -22 1031.1 993.5 -13.2
12 18.10 штиль 0 50 км ясно -26.7 -28.5 85 -27 -27 1032.7 994.3
15 18.10 штиль 0 50 км ясно -28.3 -30.0 85 -28 -28 1025.2 994.5
18 18.10 штиль 0 50 км ясно -26.9 -28.7 85 -27 -27 1024.0 994.6
21 18.10 штиль 0 50 км 8/0
[Ac trans Ci fib]
-25.0 -26.8 85 -25 -25 1032.9 994.8 -28.5 15
00 19.10 З 1 50 км 10/0
[Ac und]
-24.5 -26.4 84 -28 -28 1032.3 994.4
03 19.10 штиль 0 50 км 8/1 1000 м
[Sc Ac trans]
-20.8 -22.7 85 -21 -20 1031.3 993.8
06 19.10 штиль 0 50 км 10/0
[Ac und]
-18.1 -20.0 85 -18 -18 1030.6 993.6
09 19.10 штиль 0 50 км 10/0
[Ac und]
-17.3 -19.2 85 -17 -17 1030.9 994.0 -17.2
12 19.10 штиль 0 50 км 10/0
[Ac und]
-17.0 -19.6 80 -17 -17 1031.1 994.2
15 19.10 штиль 0 50 км 10/0
[Ac As]
-15.5 -17.4 85 -16 -16 1031.0 994.4
18 19.10 штиль 0 50 км {снег} 10/0
[Ac As]
-15.2 -17.2 85 -15 -15 1031.1 994.5
21 19.10 штиль 0 50 км 10/0
[As op]
-16.1 -19.0 78 -16 -16 1031.6 994.9 -17.6 0.0 15
00 20.10 штиль 0 50 км 10/0
[As op]
-15.5 -17.4 85 -16 -16 1032.2 995.5
03 20.10 штиль 0 50 км 10/0
[Ac und]
-14.1 -17.6 75 -14 -14 1032.1 995.5
06 20.10 штиль 0 50 км 10/0
[Ac trans Cc]
-13.3 -16.8 75 -13 -13 1032.1 995.7
09 20.10 штиль 0 50 км 1/0
[Ac lent]
-21.4 -23.9 80 -21 -21 1034.3 996.5 -13.0
12 20.10 штиль 0 50 км 3/0
[Ac lent]
-25.8 -28.3 79 -26 -26 1035.9 997.5
15 20.10 штиль 0 50 км ясно -27.4 -29.8 80 -27 -27 1035.9 997.4
18 20.10 штиль 0 50 км ясно -28.6 -31.0 80 -29 -29 1037.6 997.5
21 20.10 штиль 0 50 км ясно -29.5 -32.0 79 -30 -30 1036.8 997.8 -29.5 15
00 21.10 штиль 0 50 км 6/6 1000 м
[Sc]
-27.5 -30.0 79 -28 -27 1036.8 998.3
03 21.10 В 1 50 км 8/0
[Ac trans]
-19.8 -21.7 85 -23 -22 1034.7 997.3
06 21.10 штиль 0 50 км 8/0
[Ac lent Ci fib]
-16.6 -19.2 80 -17 -17 1033.8 996.8
09 21.10 штиль 0 50 км 8/0
[Ac lent Ci fib]
-19.5 -21.4 85 -20 -20 1033.9 996.6 -16.3
12 21.10 штиль 0 50 км 10/0
[Ac und]
-20.2 -22.1 85 -20 -20 1033.4 996.0
15 21.10 штиль 0 50 км 9/0
[Ac trans]
-16.9 -18.8 85 -17 -17 1032.2 995.3
18 21.10 штиль 0 50 км 9/0
[Ac trans]
-15.9 -17.8 85 -16 -16 1031.6 994.9
21 21.10 штиль 0 50 км 9/0
[Ac trans]
-22.0 -23.3 89 -22 -22 1031.4 993.9 -22.0 15
00 22.10 штиль 0 50 км 9/3 1000 м
[Sc Ac trans Ci fib]
-17.1 -19.0 85 -17 -17 1028.3 991.5
03 22.10 штиль 0 50 км 8/0
[As op Ci fib]
-15.1 -17.8 80 -15 -15 1025.4 989.0
06 22.10 штиль 0 50 км 8/8 1000 м
[Sc]
-11.4 -14.2 80 -12 -12 1022.0 986.3
09 22.10 штиль 0 50 км 6/6 1000 м
[Sc]
-14.0 -15.3 90 -14 -14 1019.9 983.8 -10.8
12 22.10 штиль 0 50 км 10/0
[As trans]
-13.6 -14.9 90 -14 -14 1017.8 981.9
15 22.10 штиль 0 50 км {снег} 10/0
[As trans]
-13.5 -14.8 90 -14 -14 1015.8 980.0
18 22.10 штиль 0 50 км {снег} 10/0
[As trans]
-15.2 -16.5 90 -15 -15 1014.6 978.5
21 22.10 штиль 0 50 км 10/8 1000 м
[Sc As op]
-13.3 -14.6 90 -13 -13 1012.8 977.1 -15.2 0.0 15
00 23.10 штиль 0 10 км слабый снег 10/0
[As op]
-11.3 -12.6 90 -11 -11 1011.1 975.7
03 23.10 штиль 0 10 км слабый ливневой снег 10/3 600 м
[Cb cap Ac As]
-6.5 -9.7 78 -7 -7 1009.5 974.8
06 23.10 штиль 0 10 км слабый ливневой снег 10/4 600 м
[Cb cap Ac As Cs]
-7.4 -9.5 85 -8 -8 1009.3 974.5
09 23.10 штиль 0 10 км слабый снег {ливн. осадки} 10/0
[As op]
-11.2 -12.5 90 -11 -11 1009.7 974.4 -6.1 0.9
12 23.10 штиль 0 4000 м снег {ливн. осадки} 10/0
[As op]
-10.6 -11.9 90 -11 -11 1009.1 974.0
15 23.10 штиль 0 20 км слабый снег 10/0
[As op Cs]
-12.9 -14.2 90 -13 -13 1009.4 973.9

 

Местоположение метеостанции Усть-Чаркы (Якутия, Россия): широта 66.80 долгота 136.60 высота над уровнем моря 274 м.

В архиве по умолчанию представлена погода в Усть-Чарках за последнюю неделю. Архивные данные за месяц целиком и за предыдущие месяцы, начиная с января 2011 года, Вы можете получить, выбрав интересующий диапазон дат из раскрывающегося списка и нажав кнопку "Ввод!".

Внимание! Время в таблицах - всемирное. Для получения местного времени необходимо прибавить поправку, которая в Усть-Чарках равна 10 ч.

Смотрите также архив погоды в соседних городах и на ближайших метеорологических станциях:

Погода в Батагае (Якутия, Россия) (128 км)
Погода в Верхоянске (Якутия, Россия) (162 км)
Погода в Иэме (Якутия, Россия) (171 км)
Погода в Екюччю (Якутия, Россия) (219 км)
Погода в Батагай-Алыте (Якутия, Россия) (288 км)
Погода в Усть-Моме (Якутия, Россия) (294 км)
Погода в Депутатском (Якутия, Россия) (316 км)
Погода в Томпо (Якутия, Россия) (319 км)
Погода в Себян-Кюеле (Якутия, Россия) (341 км)
Погода в Усть-Куйге (Якутия, Россия) (358 км)

Пояснения к столбцам:

Ветер - указаны скорость ветра в м/с - средняя за 10 мин, порывы в срок и между сроками (в фигурных скобках) и направление, откуда дует ветер: С - северный, СВ - северо-восточный, В - восточный, ЮВ - юго-восточный, Ю - южный, ЮЗ - юго-западный, З - западный, СЗ - северо-западный.
Видимость - горизонтальная дальность видимости в метрах или километрах. При видимости от 1 до 10 км при отсутствии осадков обычно наблюдается дымка, при ухудшении видимости до 1 км и менее - туман. В сухую погоду видимость может ухудшаться дымом, пылью или мглою.
Явления - указаны атмосферные явления, наблюдавшиеся в срок или в последний час перед сроком; фигурными скобками обозначены явления, наблюдавшиеся между сроками (за 1-3 часа до срока); квадратными скобками обозначены град или гололедные отложения с указанием их диаметра в мм.
Облачность - указаны через наклонную черту общая и нижняя облачность в баллах и высота нижней границы облаков в метрах; квадратными скобками обозначены формы облаков: Ci - перистые, Cs - перисто-слоистые, Cc - перисто-кучевые, Ac - высококучевые, As - высокослоистые, Sc - слоисто-кучевые, Ns - слоисто-дождевые, Cu - кучевые, Cb - кучево-дождевые. Подробнее классификацию облаков см. в Атласе облаков (PDF).
T - Температура воздуха - температура, измеренная на высоте 2 м над землей.
Td - Температура точки росы - температура, при понижении до которой содержащийся в воздухе водяной пар достигнет насыщения.
f - Относительная влажность воздуха - влажноcть воздуха, измеренная на высоте 2 м над землей.
Te - Эффективная температура - температура, которую ощущает одетый по сезону человек в тени. Характеристика душности погоды. При расчете учитывается влияние влажности воздуха и скорости ветра на теплоощущения человека.
Tes - Эффективная температура на солнце - температура, которую ощущает человек, с поправкой на солнечный нагрев. Характеристика знойности погоды. Зависит от высоты солнца над горизонтом, облачности и скорости ветра. Ночью, в пасмурную погоду, а также при ветре 12 м/с и более поправка равна нулю.
P - Атмосферное давление - приведенное к уровню моря атмосферное давление.
Po - Атмосферное давление - измеренное на уровне метеостанции атмосферное давление.
Tmin - Минимальная температура - минимум температуры воздуха на высоте 2 м над землей.
Tmax - Максимальная температура - максимум температуры воздуха на высоте 2 м над землей.
R - Количество осадков - Количество выпавших осадков за период времени, мм. При наведении курсора мыши на число - период времени, за который выпало указанное количество осадков.
R24 - Количество осадков - Количество выпавших осадков за 24 часа, мм.
S - Снежный покров - Высота снежного покрова, см. При наведении курсора мыши на число - состояние снежного покрова и степень покрытия местности в баллах.